CZ-6A DEB

Satellite information

Favourite Embed

Satellite Type and Status

DEBRISIN ORBIT

Key statistics

Satellite CZ-6A DEB at a glance.

Uptime

276

Days in orbit

Revolutions

≈ 14.6

Per day

Orbit

LEO

Low Earth Orbit

Inclination

89.1

Latest

Satellite identification and parameters

Extended collection of information and parameters for CZ-6A DEB.

Object identification

Identified? True

Debris? True

Object name: CZ-6A DEB

International designator: 2024-140ZH

Object number (NORAD): 61451

Object ID (CCSDS): 61451

Country: PEOPLES REPUBLIC OF CHINA (PRC)

Current information (Y/N): Y

RCS size: SMALL

Orbital parameters

Period: 98.706 minutes

Inclination: 89.0501 deg

SMA: 7074.946 km

Apoapsis: 782.589 km

Periapsis: 611.034 km

RAAN: 320.2824 deg

Eccentricy: 0.0121241

Argument of periapsis: 211.949 deg

Mean anomaly: 147.4332 deg

Mean motion: 14.58874827 rev/day

Mean motion (dot): 0.00005694 rev/day2

B* drag term: 0.0010948 1/REarth

Two-line elements (TLE)

Creation date: May 8, 2025, 3:01 a.m.

Reference frame: TEME

Reference center: EARTH

Epoch: May 7, 2025, 11:27 a.m. UTC

TLE line 0: 0 CZ-6A DEB

TLE line 1: 1 61451U 24140ZH 25127.47747618 .00005694 00000-0 10948-2 0 9997

TLE line 2: 2 61451 89.0501 320.2824 0121241 211.9490 147.4332 14.58874827 33992

Live tracking on map

Real-time ground track for satellite CZ-6A DEB.

In-orbit conjunctions

A list of the most updated potential collisions computed for object CZ-6A DEB.

Target Orbit TCA Probability of collision Miss distance Type
FENGYUN 1C DEB SSO 2025-03-02 17:21:33 0.0001800125 304.0 (m) DEBRIS
NOAA 16 DEB SSO 2024-12-01 06:59:09 0.0007130828 138.0 (m) DEBRIS
COSMOS 2251 DEB LEO 2024-11-16 14:25:50 0.0002905361 311.0 (m) DEBRIS
CZ-6A DEB LEO 2024-11-11 22:19:12 0.0001661808 63.0 (m) DEBRIS
COSMOS 2251 DEB LEO 2024-11-04 02:28:56 0.0001001211 180.0 (m) DEBRIS

Associated space launch

18 Low Earth Orbit communication satellites with Ku, Q and V band payloads for the G60 constellation operated by Shanghai Spacecom Satellite Technology (SSST) with funding backed by the Shanghai local government. Initial constellation will consist of 1296 satellites by 2027 with long term plans to expand it to 12000 satellites.

CZ-6A DEB was lifted into orbit during the mission ‘Long March 6A | G60 Polar Group 01’, on board a Long March 6A space rocket.

The launch took place on Aug. 6, 2024, 6:42 a.m. from Launch Complex 9A.

For more information about the launch, click the button.

Launch to space Long March 6A | G60 Polar Group 01
Long March 6A | G60 Polar Group 01

Agency: N/A

Status: Launch Successful

Launch date: Aug. 6, 2024, 6:42 a.m. UTC

Rocket: Long March 6A

Launch pad: Launch Complex 9A

Location: Taiyuan Satellite Launch Center, People's Republic of China

...

Latest news about this satellite

News about space launch
Brightness of first Chinese broadband constellation satellites alarms astronomers

The first satellites of a Chinese broadband constellation are significantly brighter than those of Western systems, posing a new challenge for astronomers.

News about space launch
Chinese rocket stage breaks up into cloud of more than 700 pieces of space debris

HELSINKI — A Chinese Long March 6A rocket’s upper stage has fragmented into a cloud of over 700 pieces of space debris, adding to concerns about long-term orbital safety. China […]

News about space launch
China's Thousand Sails Megaconstellation Kicks Off with Dangerous Debris Field

China's Thousand Sails Megaconstellation Kicks Off with Dangerous Debris Field


Newsletter sign-up

Weekly statistics, charts and insights to help you stay on top of the space industry.